Flag for U.S.A. Weather past 2 weeks in Freehold, New Jersey, U.S.A.

Now
55 °F

Clear.


Feels Like: 54 °F
Forecast: 51 / 57 °F
Wind: 6 mph from North

Location: Belmar-Farmdale

Current Time: Oct 21, 2014 at 9:44:57 PM

Latest Report: Oct 21, 2014 at 9:15 PM


Visibility: 10 mi

Pressure: 29.88 "Hg

Humidity: 77%

Dew point: 48 °F

Location of FreeholdLocation

Historic Weather in Freehold — Graph

°F

Freehold temperature yesterday

Maximum temperature yesterday: 61 °F (at 1:15 PM)
Minimum temperature yesterday: 36 °F (at 3:35 AM)
Average temperature yesterday: 50 °F

Past Weeks' High & Low Weather Summary

 TemperatureHumidityPressure
High75 °F (Oct 14, 12:35 PM)88% (Oct 8, 1:35 AM)30.35 "Hg (Oct 8, 1:35 AM)
Low36 °F (Oct 20, 3:35 AM)31% (Oct 9, 2:15 PM)29.59 "Hg (Oct 18, 2:55 PM)
Average60 °F66%29.98 "Hg
* Reported Oct 6 8:35 PM — Oct 21 8:55 PM, Freehold, Weather by CustomWeather, © 2014

Note: Actual official high and low records may vary slightly from our data, if they occured in-between our weather recording intervals... More about our weather records

Advertising

Freehold weather history for previous 24 hours

 ConditionsComfort  
Time TempWeatherWind HumidityBarometerVisibility
8:55 PM
Oct 21
55 °FClear.3 mph77%29.87 "Hg10 mi
8:35 PM55 °FClear.7 mph77%29.86 "Hg10 mi
7:55 PM55 °FClear.No wind77%29.85 "Hg10 mi
7:35 PM55 °FClear.No wind77%29.85 "Hg10 mi
7:15 PM55 °FClear.No wind88%29.84 "Hg10 mi
6:55 PM57 °FSunny.3 mph82%29.84 "Hg10 mi
6:35 PM57 °FSunny.No wind82%29.83 "Hg10 mi
6:15 PM57 °FSunny.6 mph82%29.83 "Hg10 mi
5:55 PM59 °FSunny.5 mph77%29.82 "Hg10 mi
5:35 PM61 °FSunny.7 mph72%29.82 "Hg10 mi
5:15 PM61 °FSunny.6 mph72%29.82 "Hg7 mi
4:55 PM61 °FPassing clouds.7 mph72%29.82 "Hg10 mi
4:35 PM61 °FScattered clouds.5 mph72%29.82 "Hg10 mi
4:15 PM61 °FBroken clouds.6 mph77%29.82 "Hg10 mi
3:55 PM61 °FMostly cloudy.6 mph77%29.82 "Hg9 mi
3:35 PM61 °FBroken clouds.5 mph72%29.82 "Hg10 mi
3:15 PM61 °FMostly cloudy.6 mph72%29.82 "Hg10 mi
2:55 PM61 °FMore clouds than sun.3 mph72%29.82 "Hg10 mi
2:35 PM63 °FMostly cloudy.6 mph73%29.82 "Hg10 mi
2:15 PM61 °FMore clouds than sun.5 mph77%29.82 "Hg10 mi
1:55 PM61 °FThundershowers. More clouds than sun.5 mph72%29.82 "Hg10 mi
1:35 PM61 °FThundershowers. Mostly cloudy.5 mph72%29.84 "Hg10 mi
1:15 PM61 °FThundershowers. More clouds than sun.No wind72%29.84 "Hg10 mi
12:55 PM61 °FThunderstorms. Mostly cloudy.No wind72%29.85 "Hg8 mi
12:35 PM64 °FThundershowers. Cloudy.9 mph64%29.84 "Hg10 mi
12:15 PM66 °FThundershowers. Cloudy.6 mph52%29.86 "Hg10 mi
11:55 AM64 °FMostly cloudy.7 mph56%29.86 "Hg10 mi
11:35 AM66 °FCloudy.8 mph52%29.87 "Hg10 mi
11:15 AM64 °FMostly cloudy.7 mph60%29.87 "Hg10 mi
10:55 AM64 °FMostly cloudy.6 mph64%29.88 "Hg10 mi
10:35 AM64 °FPartly sunny.6 mph60%29.88 "Hg10 mi
10:15 AM63 °FPassing clouds.5 mph59%29.89 "Hg10 mi
9:55 AM63 °FPassing clouds.7 mph59%29.89 "Hg10 mi
9:35 AM59 °FPassing clouds.No wind63%29.89 "Hg10 mi
9:15 AM57 °FScattered clouds.No wind67%29.89 "Hg10 mi
8:55 AM54 °FScattered clouds.No wind72%29.89 "Hg10 mi
8:35 AM54 °FSunny.No wind72%29.89 "Hg10 mi
7:55 AM50 °FPassing clouds.3 mph76%29.89 "Hg10 mi
7:35 AM50 °FPassing clouds.No wind76%29.88 "Hg10 mi
7:15 AM54 °FPassing clouds.3 mph67%29.88 "Hg10 mi
6:55 AM54 °FPassing clouds.5 mph67%29.88 "Hg10 mi
6:35 AM54 °FPassing clouds.5 mph67%29.88 "Hg10 mi
6:15 AM55 °FPassing clouds.3 mph63%29.89 "Hg10 mi
5:55 AM54 °FOvercast.5 mph67%29.88 "Hg10 mi
5:35 AM54 °FPassing clouds.3 mph67%29.89 "Hg10 mi
5:15 AM54 °FPassing clouds.5 mph67%29.90 "Hg10 mi
4:55 AM54 °FPassing clouds.3 mph67%29.89 "Hg10 mi
4:35 AM54 °FPassing clouds.5 mph67%29.90 "Hg10 mi
4:15 AM54 °FPassing clouds.3 mph67%29.90 "Hg10 mi
3:55 AM54 °FPassing clouds.3 mph67%29.91 "Hg10 mi
3:35 AM54 °FClear.5 mph67%29.91 "Hg10 mi
3:15 AM52 °FClear.5 mph72%29.91 "Hg10 mi
2:55 AM52 °FClear.5 mph72%29.92 "Hg10 mi
2:35 AM52 °FClear.6 mph67%29.93 "Hg10 mi
2:15 AM52 °FClear.5 mph72%29.94 "Hg10 mi
1:55 AM54 °FClear.6 mph67%29.94 "Hg10 mi
1:35 AM54 °FClear.5 mph67%29.94 "Hg10 mi
1:15 AM54 °FClear.5 mph67%29.95 "Hg10 mi
12:55 AM54 °FClear.5 mph63%29.95 "Hg10 mi
12:35 AM54 °FClear.5 mph67%29.97 "Hg10 mi
12:15 AM54 °FClear.5 mph63%29.97 "Hg10 mi
11:55 PM
Oct 20
54 °FClear.3 mph63%29.97 "Hg10 mi
11:15 PM55 °FClear.6 mph63%29.98 "Hg10 mi
10:55 PM55 °FClear.7 mph63%29.99 "Hg10 mi
10:35 PM57 °FClear.7 mph59%29.99 "Hg10 mi
10:15 PM57 °FClear.8 mph59%29.99 "Hg10 mi
9:55 PM57 °FClear.9 mph59%29.99 "Hg10 mi
9:35 PM55 °FClear.7 mph63%29.98 "Hg10 mi
9:15 PM57 °FClear.5 mph59%29.99 "Hg10 mi
Weather by CustomWeather, © 2014

See weather overviewHow to use our weather pages